Location: East Fork Observatory
(32.9757°N, 94.4485°W)
Time: 20:44:03
(UTC-06:00)

Hubble Space Telescope - Pass Details

Date: 31 October 2019
Orbit: 536 x 540 km, 28.5° (Epoch: 21 November)

Event Time Altitude Azimuth Distance (km) Brightness Sun altitude
Exits shadow 05:43:59 32° 174° (S) 925 2.0 -23.7°
Maximum altitude 05:44:10 32° 168° (SSE) 922 2.0 -23.7°
Drops below altitude 10° 05:47:52 10° 104° (ESE) 1,779 4.5 -22.9°
Sets 05:50:17 0° 94° (E) 2,670 5.8 -22.4°
